H-2A R/B

基本信息
目录编号:
55330
目录名称:
H-2A R/B
国际标识:
2023-012B
轨道中心:
EARTH
物体状态:
已陨落(2024-10-07)
发射日期:
2023-01-26 UTC
国别:
日本 (JP)
轨道信息
数据来源: 国际轨道数据
星历时间: 2024-10-08T03:28:44+0800
半长轴: 6513.91km
偏心率: 0.001324
轨道倾角: 97.180°
近地点辐角: 227.135°
升交点赤经: 4.345°
平近点角: 267.089°
近地点: 127.15km
远地点: 144.4km
周期: 87.201分钟
每日圈数: 16.513539
详细信息
发射场:
TNSTA
轨道高度:
LEO
数据来源:
AOE Integration Group
参考系:
TEME
时间系统:
UTC
历元类型:
SGP4
2D轨道图
3D轨道图
轨道高度分析图
轨道倾角分析图
轨道综合分析图
查看轨道综合分析图